Location: Newark
(21.1200°N, 73.4000°E)
Time: 05:23:04
(UTC+00:00)

Courier 1B Rocket - Pass Details

Date: 21 January 2020
Orbit: 920 x 1202 km, 28.2° (Epoch: 25 February)

Event Time Altitude Azimuth Distance (km) Brightness Sun altitude
Rises 15:11:38 0° 277° (W) 3,545 8.9 -32.8°
Reaches altitude 10° 15:14:36 10° 265° (W) 2,610 8.1 -33.5°
Maximum altitude 15:19:43 27° 209° (SSW) 1,731 6.6 -34.6°
Enters shadow 15:20:57 25° 191° (S) 1,804 6.5 -34.9°
Drops below altitude 10° 15:25:00 10° 154° (SSE) 2,695 - -35.8°
Sets 15:28:08 0° 142° (SE) 3,684 - -36.6°
